Location: Boullarre
(49.1305°N, 3.0047°E)
Time: 14:57:04
(UTC+00:00)

Cosmos 1606 Rocket - Pass Details

Date: 03 February 2023
Orbit: 602 x 630 km, 82.5° (Epoch: 25 March)

Event Time Altitude Azimuth Distance (km) Brightness Sun altitude
Rises 18:27:59 0° 346° (NNW) 2,868 7.1 -16.6°
Reaches altitude 10° 18:30:14 10° 341° (NNW) 1,960 6.3 -17.0°
Maximum altitude 18:34:26 53° 266° (W) 751 4.3 -17.6°
Drops below altitude 10° 18:38:38 10° 189° (S) 1,950 6.3 -18.3°
Sets 18:40:52 0° 185° (S) 2,852 7.1 -18.7°
